Terminal Aerodrome Forecast
Issued by NWS

Home | Current Version | Previous Version | Graphics & Text | Print | Product List | Glossary On
Versions: 1 2 3 4 5 6 7 8 9 10 11 12 13 14 15 16 17 18 19 20 21
000
FTUS43 KBIS 151100
TAFMOT
TAF
KMOT 151125Z 1512/1612 33018G28KT P6SM OVC012
     FM152200 32014KT P6SM OVC012
     FM160600 32008KT P6SM OVC015=

USA.gov is the U.S. government's official web portal to all federal, state and local government web resources and services.